Zurück zum Katalog

STARLINK-4351

AktivKommunikationSSO
NORAD 53193·PAYLOAD·🇺🇸 United States

Gestartet Jul 22, 2022 von Vandenberg Space Force Base

Loading…

Nächste Überflüge (nächste 24 Stunden)

TLE

AktuellSource: CelesTrak SupGP

Epoche: Sep 14, 2026, 13:39 UTC

1 53193C 22084E   26257.56923611  .00055939  00000+0  17365-2 0  2573
2 53193  97.2833 312.4700 0001155 103.5088  61.0252 15.33410077    17

Verfolge STARLINK-4351 in Echtzeit mit AllMySat

Download on the App Store